Wind_Speed
24 24 25 25 25 25 25 26 25 25 25 25 25 26 26 26 26 26 26 26 26 26 27 27 27 26 26 25 25 25 25 25 24 24 24 24 23 23 22 21 21 20 20
26 26 26 27 27 27 27 27 27 27 27 27 27 28 28 28 28 27 27 27 27 28 28 28 28 28 28 28 27 27 27 26 26 26 26 25 25 24 23 23 22 22 22
28 28 27 27 27 28 28 29 29 29 28 29 29 29 29 29 29 29 29 29 29 29 29 29 29 29 29 29 29 29 29 28 28 28 28 27 27 26 26 25 25 24 24
28 28 29 28 28 29 29 30 30 30 30 30 31 31 30 30 30 30 31 31 31 31 31 31 31 31 30 30 30 29 29 29 29 29 29 28 28 28 27 26 26 25 25
28 29 29 29 29 29 29 29 30 31 31 31 31 31 31 32 32 32 32 33 33 33 33 32 32 32 31 30 30 30 30 30 30 29 29 29 29 28 27 27 27 26 26
29 29 29 29 30 30 30 30 31 31 32 32 32 32 32 33 33 34 34 34 34 35 35 34 33 33 32 32 32 31 31 31 31 31 30 30 28 28 28 28 28 27 27
30 30 30 30 31 31 31 31 32 32 33 33 33 33 33 33 34 35 35 35 36 35 35 35 34 34 34 34 33 33 32 32 32 32 31 31 30 29 29 29 29 28 28
30 31 31 32 32 32 33 33 33 33 34 34 35 35 34 34 35 35 35 36 35 35 35 35 35 35 35 35 34 34 34 33 32 32 32 31 31 31 31 30 29 29 29
32 32 32 33 33 34 34 34 34 35 35 35 36 36 36 36 37 37 36 36 35 34 35 35 35 35 35 35 35 35 34 33 33 33 33 32 32 31 31 31 31 31 30
33 33 32 33 34 34 35 35 36 36 37 37 37 38 38 38 38 37 36 36 35 35 35 34 34 35 35 35 35 35 34 33 33 33 33 32 31 32 32 32 32 32 32
34 34 34 34 34 35 35 35 36 37 37 37 38 38 39 38 38 36 35 35 36 36 36 35 35 35 35 35 35 35 34 33 33 34 33 33 32 32 32 33 33 33 33
35 35 35 35 35 35 36 36 36 36 37 37 38 38 38 38 37 36 35 35 36 36 36 36 35 35 34 34 35 35 35 34 34 34 34 34 34 33 33 33 33 34 34
37 36 36 36 36 37 37 37 37 38 38 38 38 37 36 36 35 35 35 35 36 36 35 36 36 35 35 36 36 36 35 35 34 34 34 34 34 33 32 32 33 34 34
37 37 36 36 37 37 38 38 39 39 38 38 37 36 36 36 35 35 36 35 35 35 36 36 37 37 37 37 37 37 36 36 35 35 34 34 34 34 33 32 33 33 33
37 37 37 38 38 38 39 39 39 39 38 38 37 36 36 36 35 35 35 35 35 35 36 37 37 38 37 37 37 37 36 35 35 34 34 34 34 34 33 33 33 33 33
37 37 37 37 38 39 40 39 39 38 38 37 37 36 36 36 35 35 35 35 35 36 36 36 37 37 38 37 37 37 36 35 34 34 34 34 34 34 33 33 32 32 32
37 37 37 37 38 38 38 39 38 37 37 37 36 36 36 35 35 35 35 35 35 36 36 35 36 36 36 35 35 35 35 34 34 33 33 33 32 32 32 32 31 31 31
37 37 37 37 37 38 38 38 38 36 35 34 34 34 35 35 35 35 35 36 36 36 36 35 34 34 34 34 34 33 33 33 32 32 32 31 31 31 30 31 31 31 30
36 36 36 37 38 37 38 37 36 35 34 33 33 33 33 33 33 34 34 34 34 34 34 33 33 33 33 33 33 32 32 32 31 31 31 31 30 30 30 31 31 31 31
35 35 36 36 36 36 35 35 34 34 34 33 33 33 32 32 32 32 32 32 33 33 32 32 32 32 32 31 31 31 31 31 31 30 30 30 30 30 30 30 31 31 31
35 35 35 35 34 34 34 33 33 33 33 33 33 33 33 32 32 32 32 32 33 33 32 31 31 31 31 31 30 30 30 30 30 30 30 29 29 29 30 30 30 30 30
35 34 34 33 33 33 33 32 31 32 32 31 31 31 32 31 31 31 31 31 31 31 30 29 29 29 29 30 30 30 29 29 29 29 29 29 29 30 30 30 30 30 30
34 34 33 33 32 32 32 32 31 31 31 31 30 29 29 28 28 28 28 28 29 29 29 29 29 28 28 28 28 28 28 28 29 29 29 29 30 30 30 29 30 30 30
33 33 33 32 32 31 31 30 30 30 29 28 28 27 27 27 27 27 27 27 28 28 28 28 28 28 28 28 28 28 28 28 28 29 28 28 29 29 29 29 29 30 30
33 32 31 31 30 30 29 29 28 27 27 26 25 25 25 25 25 25 26 27 27 27 27 27 27 27 28 27 27 27 27 27 28 28 28 28 28 29 29 29 29 30 30
32 31 30 30 29 28 28 27 26 25 25 24 25 25 25 25 25 25 26 26 26 26 26 27 27 27 27 27 27 27 27 27 26 27 27 27 27 28 28 28 29 29 29
Wind_Direction
284 283 282 280 281 279 277 278 277 278 280 281 282 283 283 284 285 286 286 287 287 286 287 286 284 283 283 282 281 280 280 280 281 279 280 279 279 279 278 276 276 278 278
283 282 282 281 280 280 279 277 278 279 279 279 282 283 282 283 283 284 285 285 285 284 286 286 284 283 283 282 281 280 280 279 279 278 278 278 277 277 276 273 274 276 276
284 282 282 282 281 281 280 279 278 278 278 278 280 282 282 282 283 283 283 283 282 282 283 284 283 282 282 282 281 280 279 278 278 277 276 276 276 276 275 274 273 273 273
285 283 283 282 280 280 280 279 278 278 278 279 280 281 281 281 282 282 282 281 281 281 281 282 283 281 282 281 280 279 278 277 277 277 276 276 275 274 274 274 272 271 270
286 284 283 282 280 281 282 281 280 279 279 279 280 280 280 281 282 280 281 282 281 281 281 281 281 280 279 280 280 278 277 276 276 275 275 274 273 273 272 271 271 270 270
286 284 284 283 282 282 282 281 281 280 280 280 280 280 281 282 282 281 280 280 281 281 279 279 279 279 278 279 279 277 277 276 276 275 273 273 273 271 271 270 270 270 269
287 284 284 283 282 283 283 282 282 282 282 281 281 281 282 283 283 282 281 280 280 280 278 277 277 277 276 277 277 276 277 277 275 273 273 272 270 270 270 270 269 270 270
288 286 285 284 283 283 282 282 282 282 282 282 282 281 282 282 283 283 282 281 279 278 278 277 276 276 275 276 276 275 276 276 275 274 274 271 269 267 268 269 269 269 269
288 288 287 285 284 284 283 283 283 282 281 282 282 282 282 282 282 282 281 280 278 278 277 277 277 276 275 275 275 275 274 273 274 274 273 271 269 267 267 267 268 269 268
288 289 290 288 286 286 285 284 284 283 281 281 281 282 282 281 281 281 280 279 277 277 277 277 276 275 275 273 273 274 273 272 273 273 272 271 268 265 265 265 267 268 268
288 288 289 289 288 287 287 287 287 286 285 284 283 282 282 281 280 279 279 277 277 277 276 277 276 276 274 274 274 274 274 272 272 271 271 271 270 267 266 265 265 266 266
288 288 288 288 288 288 288 288 288 288 287 286 285 283 281 280 280 278 278 277 277 276 276 276 276 275 274 274 273 274 275 273 271 271 271 271 270 268 267 267 266 266 266
287 287 288 289 288 288 288 289 289 289 288 286 285 283 281 280 279 279 279 278 276 275 275 275 274 275 275 274 274 273 272 272 271 271 271 271 270 267 267 267 266 266 265
289 288 287 288 288 288 287 287 288 288 288 286 285 283 281 280 279 278 278 279 278 275 275 275 274 274 275 274 272 271 271 270 271 270 270 270 268 265 266 267 267 266 264
289 288 287 287 288 289 289 288 288 288 288 286 285 283 281 280 279 277 278 278 277 277 278 277 275 275 274 273 271 269 269 270 270 270 269 267 266 265 264 264 265 264 263
290 289 289 288 287 289 290 290 289 288 286 285 284 283 281 279 278 277 277 277 277 277 278 278 277 276 274 273 270 268 268 268 267 267 268 269 266 263 263 263 264 263 262
290 291 290 290 289 289 291 291 290 287 284 283 282 281 280 279 278 277 277 277 277 278 279 279 278 277 276 274 272 269 267 266 265 266 268 268 265 262 263 262 262 262 261
291 291 290 291 292 292 292 291 290 287 284 283 282 281 280 279 279 279 278 277 278 278 278 278 278 278 276 274 272 269 267 265 265 266 266 266 262 261 261 262 262 261 260
291 291 291 292 293 292 291 290 289 287 285 284 282 282 281 280 279 278 278 278 278 278 278 277 278 278 277 275 272 270 268 267 266 266 266 263 261 260 261 262 261 260 259
292 292 292 293 294 293 292 289 287 286 285 284 283 281 280 279 279 277 277 277 278 278 278 278 279 279 277 275 272 270 269 267 265 265 264 262 263 262 260 260 260 259 258
293 293 293 293 293 293 293 291 288 287 287 285 283 283 281 280 278 277 277 278 279 279 278 278 279 279 277 274 271 270 268 266 265 263 262 263 264 263 261 260 259 259 258
295 294 293 293 292 292 292 291 290 289 287 286 285 283 282 280 278 277 277 279 280 279 278 277 278 278 276 274 272 270 269 267 264 263 262 261 261 260 259 257 257 257 257
295 295 294 293 292 292 291 291 290 289 288 287 286 283 281 279 278 279 279 280 281 279 277 276 276 276 275 274 272 271 270 268 265 263 262 260 259 259 257 255 256 256 255
295 295 295 294 294 293 291 289 289 289 288 286 284 283 282 281 281 280 280 281 282 282 280 279 277 275 274 274 272 270 269 268 266 263 261 260 260 258 255 255 256 256 255
295 295 295 294 293 292 290 289 289 290 289 287 285 284 284 283 284 284 283 283 283 282 280 281 280 278 275 274 272 270 269 267 265 262 261 260 260 258 256 255 255 255 254
295 294 293 294 293 293 293 291 290 289 287 286 286 287 286 285 285 287 287 286 285 284 282 280 280 279 276 273 270 269 268 267 264 262 260 259 259 258 256 255 255 254 254
Height
5802 5801 5800 5800 5799 5799 5799 5799 5799 5798 5798 5798 5798 5797 5797 5796 5795 5794 5793 5791 5790 5789 5788 5787 5786 5786 5785 5785 5784 5784 5784 5783 5784 5784 5784 5784 5783 5783 5783 5783 5784 5784 5784
5795 5794 5793 5793 5792 5792 5792 5791 5791 5791 5791 5791 5790 5789 5789 5788 5787 5786 5785 5784 5783 5781 5780 5779 5778 5778 5777 5777 5776 5776 5776 5776 5776 5776 5776 5776 5776 5776 5777 5777 5777 5777 5778
5788 5787 5786 5785 5785 5784 5784 5783 5783 5783 5782 5782 5782 5781 5780 5779 5779 5778 5776 5775 5774 5773 5772 5771 5771 5770 5769 5768 5768 5768 5767 5767 5767 5768 5768 5768 5769 5769 5769 5770 5770 5770 5771
5780 5779 5778 5777 5777 5776 5775 5775 5774 5774 5774 5773 5773 5772 5771 5770 5769 5768 5767 5766 5765 5764 5763 5763 5762 5761 5760 5760 5759 5759 5758 5758 5758 5759 5759 5759 5760 5761 5761 5762 5762 5763 5764
5772 5771 5770 5769 5768 5767 5767 5766 5766 5765 5764 5764 5763 5763 5762 5761 5760 5759 5758 5757 5756 5755 5754 5753 5752 5752 5751 5750 5750 5750 5750 5750 5750 5750 5750 5750 5751 5752 5753 5753 5754 5755 5756
5764 5762 5761 5760 5759 5759 5758 5757 5757 5756 5755 5754 5754 5753 5752 5751 5750 5749 5748 5747 5746 5745 5744 5743 5743 5742 5742 5741 5741 5741 5740 5740 5740 5741 5741 5741 5742 5743 5744 5744 5745 5747 5748
5756 5754 5753 5752 5751 5750 5749 5748 5747 5746 5745 5745 5744 5743 5742 5741 5739 5738 5737 5736 5735 5734 5733 5733 5732 5732 5732 5732 5731 5731 5731 5730 5731 5731 5731 5732 5733 5734 5735 5736 5736 5737 5739
5748 5746 5744 5743 5741 5741 5740 5738 5737 5736 5735 5734 5733 5732 5731 5730 5729 5727 5726 5725 5724 5723 5722 5722 5721 5722 5722 5721 5721 5721 5721 5721 5721 5721 5721 5722 5723 5724 5725 5726 5727 5728 5729
5739 5738 5735 5734 5732 5731 5730 5728 5727 5725 5724 5723 5723 5721 5720 5719 5718 5716 5715 5714 5713 5713 5712 5711 5710 5711 5711 5710 5710 5710 5710 5711 5711 5711 5711 5712 5713 5714 5715 5716 5717 5718 5720
5730 5728 5726 5724 5723 5721 5719 5718 5716 5715 5713 5712 5711 5710 5708 5707 5706 5705 5703 5703 5702 5702 5702 5701 5700 5699 5699 5699 5699 5699 5700 5700 5701 5701 5701 5702 5702 5704 5705 5706 5707 5708 5709
5721 5719 5717 5715 5713 5711 5709 5707 5705 5703 5702 5700 5699 5698 5696 5695 5694 5693 5692 5691 5691 5691 5690 5690 5689 5688 5688 5688 5688 5688 5689 5690 5690 5690 5691 5691 5692 5693 5694 5695 5697 5698 5699
5711 5709 5707 5705 5703 5700 5698 5696 5694 5692 5690 5688 5687 5685 5684 5683 5682 5681 5680 5680 5679 5679 5679 5679 5678 5678 5677 5677 5677 5678 5678 5678 5678 5679 5680 5681 5681 5682 5683 5684 5685 5687 5688
5701 5698 5696 5694 5692 5690 5688 5686 5683 5681 5679 5677 5675 5674 5673 5672 5671 5670 5669 5668 5667 5667 5666 5666 5666 5666 5666 5666 5666 5666 5666 5667 5667 5668 5669 5670 5670 5671 5672 5673 5674 5675 5677
5689 5687 5685 5683 5681 5679 5677 5674 5672 5670 5667 5665 5664 5662 5662 5661 5659 5658 5657 5656 5656 5655 5654 5654 5654 5654 5654 5654 5654 5654 5655 5655 5655 5656 5657 5658 5658 5659 5660 5662 5663 5665 5666
5678 5676 5674 5671 5669 5667 5665 5663 5660 5658 5655 5653 5652 5651 5650 5649 5648 5647 5646 5645 5644 5644 5643 5642 5642 5642 5642 5642 5642 5642 5642 5643 5643 5644 5645 5646 5647 5648 5649 5651 5652 5653 5655
5667 5665 5662 5660 5658 5655 5653 5651 5648 5646 5644 5641 5640 5638 5638 5637 5636 5635 5634 5634 5633 5632 5631 5631 5630 5630 5629 5629 5629 5630 5630 5631 5632 5632 5633 5634 5635 5636 5638 5639 5641 5642 5644
5656 5653 5651 5648 5646 5643 5641 5638 5637 5634 5632 5630 5628 5627 5626 5625 5624 5624 5623 5622 5622 5621 5620 5620 5619 5618 5617 5617 5617 5618 5618 5619 5620 5621 5621 5622 5624 5625 5627 5628 5630 5631 5633
5645 5642 5640 5637 5634 5632 5629 5626 5624 5622 5621 5619 5617 5616 5615 5614 5613 5612 5611 5611 5610 5610 5609 5608 5607 5607 5606 5606 5606 5606 5607 5608 5609 5610 5611 5612 5613 5615 5616 5618 5620 5621 5623
5634 5632 5629 5626 5623 5620 5617 5614 5612 5610 5609 5607 5606 5605 5604 5603 5602 5601 5600 5600 5599 5599 5598 5597 5597 5596 5595 5595 5595 5595 5596 5597 5598 5599 5600 5601 5603 5604 5606 5608 5609 5611 5612
5624 5621 5618 5615 5612 5609 5606 5604 5602 5600 5598 5597 5596 5595 5594 5592 5591 5591 5590 5589 5589 5588 5588 5587 5586 5585 5584 5584 5584 5584 5585 5586 5588 5589 5590 5592 5593 5594 5596 5598 5599 5601 5602
5613 5611 5608 5605 5602 5599 5596 5594 5591 5590 5588 5586 5585 5584 5583 5582 5582 5581 5580 5579 5579 5578 5577 5577 5576 5575 5574 5573 5573 5574 5574 5576 5577 5579 5580 5581 5583 5584 5586 5587 5589 5591 5592
5603 5600 5597 5595 5592 5589 5586 5584 5581 5579 5578 5576 5575 5573 5572 5572 5571 5571 5570 5569 5569 5568 5567 5566 5565 5564 5564 5563 5563 5564 5564 5565 5567 5568 5569 5571 5573 5574 5576 5577 5579 5581 5583
5593 5590 5587 5585 5582 5580 5577 5575 5572 5570 5568 5566 5565 5564 5563 5562 5561 5561 5561 5560 5559 5558 5557 5556 5555 5555 5554 5553 5553 5554 5554 5555 5557 5558 5559 5561 5562 5564 5566 5567 5569 5571 5573
5583 5580 5578 5575 5573 5570 5568 5566 5563 5561 5559 5557 5556 5555 5554 5553 5553 5552 5551 5550 5549 5548 5547 5546 5545 5544 5544 5544 5544 5544 5545 5545 5546 5548 5549 5551 5552 5554 5556 5557 5559 5561 5563
5573 5571 5568 5566 5564 5561 5559 5557 5555 5552 5551 5549 5548 5547 5546 5545 5544 5543 5542 5541 5540 5539 5537 5536 5535 5535 5534 5534 5534 5534 5535 5536 5537 5538 5539 5541 5543 5544 5546 5547 5549 5551 5553
5564 5561 5559 5557 5555 5553 5550 5548 5546 5545 5543 5542 5540 5539 5538 5537 5536 5535 5533 5532 5531 5529 5528 5527 5526 5525 5524 5524 5524 5525 5525 5526 5527 5528 5530 5532 5533 5535 5537 5538 5540 5542 5543